When you browse on this site, cookies collect data to enhance your experience and personalize the content and advertising you see.
Visit our Privacy Policy to learn more. By continuing to use the site, you agree to this use of cookies and data.
  • In Lithuania
  • List of Countries
  • For 7 days
  • Water Temperature
  • Satellite Maps
  • Weather Map
  • Weather Widgets
  • user-avatar
    Login

    Hourly Weather Satif

    Today, 18 December, Tuesday

    Time Temperature Precipitation Wind Pressure Humidity
    00:00 +4°C° 0 mm 1 mps 678 mmHg 87%
    01:00 +4°C° 0 mm 1 mps 678 mmHg 85%
    02:00 +4°C° 0 mm 1 mps 678 mmHg 84%
    03:00 +4°C° 0 mm 1 mps 678 mmHg 82%
    04:00 +3°C° 0 mm 1 mps 678 mmHg 79%
    05:00 +3°C° 0 mm 1 mps 677 mmHg 75%
    06:00 +3°C° 0 mm 1 mps 677 mmHg 71%
    07:00 +5°C° 0 mm 1 mps 678 mmHg 63%
    08:00 +6°C° 0 mm 2 mps 678 mmHg 54%
    09:00 +8°C° 0 mm 2 mps 679 mmHg 45%
    10:00 +9°C° 0 mm 3 mps 679 mmHg 39%
    11:00 +11°C° 0 mm 3 mps 679 mmHg 33%
    12:00 +12°C° 0 mm 4 mps 679 mmHg 27%
    13:00 +12°C° 0 mm 3 mps 678 mmHg 29%
    14:00 +12°C° 0 mm 3 mps 678 mmHg 31%
    15:00 +12°C° 0 mm 3 mps 678 mmHg 33%
    16:00 +10°C° 0 mm 3 mps 677 mmHg 38%
    17:00 +9°C° 0 mm 3 mps 677 mmHg 42%
    18:00 +7°C° 0 mm 3 mps 676 mmHg 47%
    19:00 +7°C° 0 mm 3 mps 676 mmHg 50%
    20:00 +5°C° 0 mm 3 mps 676 mmHg 52%
    21:00 +5°C° 0 mm 3 mps 676 mmHg 54%
    22:00 +5°C° 0 mm 3 mps 676 mmHg 56%
    23:00 +4°C° 0 mm 3 mps 676 mmHg 58%

    Tomorrow, 19 December, Wednesday

    Time Temperature Precipitation Wind Pressure Humidity
    00:00 +4°C° 0 mm 3 mps 676 mmHg 59%
    01:00 +4°C° 0 mm 3 mps 676 mmHg 61%
    02:00 +4°C° 0 mm 3 mps 676 mmHg 63%
    03:00 +4°C° 0 mm 3 mps 675 mmHg 64%
    04:00 +4°C° 0 mm 3 mps 675 mmHg 65%
    05:00 +4°C° 0 mm 3 mps 675 mmHg 66%
    06:00 +3°C° 0 mm 3 mps 675 mmHg 67%
    07:00 +5°C° 0 mm 3 mps 676 mmHg 64%
    08:00 +7°C° 0 mm 3 mps 676 mmHg 60%
    09:00 +9°C° 0 mm 3 mps 677 mmHg 56%
    10:00 +10°C° 0 mm 3 mps 677 mmHg 52%
    11:00 +11°C° 0 mm 3 mps 677 mmHg 47%
    12:00 +13°C° 0 mm 3 mps 677 mmHg 43%
    13:00 +13°C° 0 mm 3 mps 677 mmHg 44%
    14:00 +14°C° 0 mm 2 mps 677 mmHg 44%
    15:00 +14°C° 0 mm 2 mps 676 mmHg 44%
    16:00 +12°C° 0 mm 2 mps 676 mmHg 50%
    17:00 +9°C° 0 mm 2 mps 676 mmHg 55%
    18:00 +9°C° 0 mm 1 mps 675 mmHg 61%
    19:00 +8°C° 0 mm 1 mps 675 mmHg 62%
    20:00 +8°C° 0 mm 1 mps 676 mmHg 63%
    21:00 +8°C° 0 mm 1 mps 676 mmHg 64%
    22:00 +7°C° 0 mm 1 mps 676 mmHg 65%
    23:00 +7°C° 0 mm 1 mps 676 mmHg 65%

    Day after tomorrow, 20 December, Thursday

    Time Temperature Precipitation Wind Pressure Humidity
    00:00 +7°C° 0 mm 1 mps 676 mmHg 66%
    01:00 +7°C° 0 mm 1 mps 675 mmHg 66%
    02:00 +6°C° 0 mm 1 mps 675 mmHg 66%
    03:00 +6°C° 0 mm 1 mps 675 mmHg 67%
    04:00 +6°C° 0 mm 1 mps 675 mmHg 68%
    05:00 +6°C° 0 mm 1 mps 675 mmHg 69%
    06:00 +5°C° 0 mm 1 mps 675 mmHg 71%
    07:00 +7°C° 0 mm 1 mps 676 mmHg 66%
    08:00 +9°C° 0 mm 1 mps 677 mmHg 61%
    09:00 +10°C° 0 mm 1 mps 678 mmHg 56%
    10:00 +11°C° 0 mm 1 mps 678 mmHg 56%
    11:00 +12°C° 0 mm 1 mps 678 mmHg 56%
    12:00 +12°C° 0 mm 2 mps 678 mmHg 56%
    13:00 +12°C° 0 mm 2 mps 677 mmHg 57%
    14:00 +12°C° 0 mm 2 mps 677 mmHg 59%
    15:00 +11°C° 0 mm 3 mps 677 mmHg 61%
    16:00 +10°C° 0 mm 2 mps 677 mmHg 67%
    17:00 +9°C° 0 mm 2 mps 677 mmHg 74%
    18:00 +8°C° 0 mm 2 mps 678 mmHg 81%
    19:00 +8°C° 0 mm 2 mps 678 mmHg 83%
    20:00 +8°C° 0 mm 2 mps 678 mmHg 86%
    21:00 +8°C° 0 mm 1 mps 678 mmHg 88%
    22:00 +8°C° 0 mm 1 mps 678 mmHg 90%
    23:00 +7°C° 0 mm 1 mps 678 mmHg 92%

    21 December, Friday

    Time Temperature Precipitation Wind Pressure Humidity
    00:00 +7°C° 0 mm 1 mps 678 mmHg 94%
    01:00 +6°C° 0 mm 1 mps 678 mmHg 94%
    02:00 +6°C° 0 mm 1 mps 678 mmHg 94%
    03:00 +6°C° 0 mm 1 mps 678 mmHg 93%
    04:00 +6°C° 0 mm 1 mps 678 mmHg 93%
    05:00 +5°C° 0 mm 1 mps 679 mmHg 92%
    06:00 +5°C° 0 mm 1 mps 679 mmHg 92%
    07:00 +6°C° 0 mm 1 mps 680 mmHg 86%
    08:00 +7°C° 0 mm 1 mps 680 mmHg 80%
    09:00 +8°C° 0 mm 1 mps 681 mmHg 75%
    10:00 +9°C° 0 mm 1 mps 681 mmHg 67%
    11:00 +10°C° 0 mm 1 mps 681 mmHg 60%
    12:00 +11°C° 0 mm 1 mps 681 mmHg 52%
    13:00 +11°C° 0 mm 1 mps 681 mmHg 52%
    14:00 +11°C° 0 mm 1 mps 681 mmHg 51%
    15:00 +12°C° 0 mm 1 mps 681 mmHg 50%
    16:00 +10°C° 0 mm 1 mps 681 mmHg 57%
    17:00 +9°C° 0 mm 1 mps 681 mmHg 64%
    18:00 +7°C° 0 mm 0 mps 681 mmHg 71%
    19:00 +6°C° 0 mm 0 mps 681 mmHg 72%
    20:00 +6°C° 0 mm 0 mps 681 mmHg 73%
    21:00 +5°C° 0 mm 0 mps 681 mmHg 74%
    22:00 +6°C° 0 mm 1 mps 680 mmHg 73%
    23:00 +6°C° 0 mm 1 mps 680 mmHg 72%

    22 December, Saturday

    Time Temperature Precipitation Wind Pressure Humidity
    00:00 +6°C° 0 mm 1 mps 680 mmHg 71%
    01:00 +6°C° 0 mm 1 mps 680 mmHg 71%
    02:00 +5°C° 0 mm 1 mps 680 mmHg 72%
    03:00 +5°C° 0 mm 1 mps 679 mmHg 72%
    04:00 +5°C° 0 mm 1 mps 679 mmHg 72%
    05:00 +5°C° 0 mm 1 mps 679 mmHg 73%
    06:00 +4°C° 0 mm 2 mps 679 mmHg 73%
    07:00 +5°C° 0 mm 2 mps 680 mmHg 67%
    08:00 +7°C° 0 mm 2 mps 681 mmHg 62%
    09:00 +8°C° 0 mm 2 mps 682 mmHg 56%
    10:00 +9°C° 0 mm 2 mps 682 mmHg 51%
    11:00 +12°C° 0 mm 2 mps 682 mmHg 46%
    12:00 +13°C° 0 mm 2 mps 682 mmHg 41%
    13:00 +13°C° 0 mm 2 mps 681 mmHg 41%
    14:00 +13°C° 0 mm 2 mps 681 mmHg 41%
    15:00 +13°C° 0 mm 2 mps 681 mmHg 41%
    16:00 +12°C° 0 mm 2 mps 680 mmHg 48%
    17:00 +10°C° 0 mm 1 mps 680 mmHg 54%
    18:00 +8°C° 0 mm 1 mps 680 mmHg 60%
    19:00 +8°C° 0 mm 1 mps 680 mmHg 61%
    20:00 +8°C° 0 mm 1 mps 680 mmHg 62%
    21:00 +7°C° 0 mm 1 mps 680 mmHg 63%
    22:00 +7°C° 0 mm 1 mps 680 mmHg 63%
    23:00 +7°C° 0 mm 1 mps 680 mmHg 64%

    23 December, Sunday

    Time Temperature Precipitation Wind Pressure Humidity
    00:00 +6°C° 0 mm 1 mps 679 mmHg 64%
    01:00 +6°C° 0 mm 1 mps 679 mmHg 65%
    02:00 +6°C° 0 mm 1 mps 679 mmHg 66%
    03:00 +6°C° 0 mm 1 mps 678 mmHg 67%
    04:00 +5°C° 0 mm 1 mps 678 mmHg 67%
    05:00 +5°C° 0 mm 1 mps 678 mmHg 68%
    06:00 +5°C° 0 mm 1 mps 678 mmHg 69%
    07:00 +7°C° 0 mm 1 mps 679 mmHg 63%
    08:00 +9°C° 0 mm 1 mps 680 mmHg 57%
    09:00 +10°C° 0 mm 1 mps 680 mmHg 51%
    10:00 +12°C° 0 mm 1 mps 680 mmHg 45%
    11:00 +13°C° 0 mm 1 mps 680 mmHg 40%
    12:00 +15°C° 0 mm 1 mps 681 mmHg 34%
    13:00 +15°C° 0 mm 1 mps 680 mmHg 34%
    14:00 +15°C° 0 mm 1 mps 680 mmHg 34%
    15:00 +15°C° 0 mm 1 mps 680 mmHg 34%
    16:00 +13°C° 0 mm 1 mps 680 mmHg 40%
    17:00 +11°C° 0 mm 1 mps 679 mmHg 46%
    18:00 +9°C° 0 mm 1 mps 679 mmHg 52%
    19:00 +9°C° 0 mm 1 mps 679 mmHg 52%
    20:00 +9°C° 0 mm 1 mps 679 mmHg 51%
    21:00 +8°C° 0 mm 1 mps 679 mmHg 51%
    22:00 +8°C° 0 mm 1 mps 679 mmHg 51%
    23:00 +8°C° 0 mm 1 mps 678 mmHg 50%
    Show more